| time (UTC) | temp F | wind direction | speed knots | gust knots | rain 1hr in | rain 24hr in | rain mn in | humidity % | barometer mb |
| 20260503021523 | 46 | 0.0 | 0.0 | 0.00 | 0.00 | 0.00 | 84 | 1018.4 | |
| 20260503020519 | 46 | 0.0 | 0.0 | 0.00 | 0.00 | 0.00 | 83 | 1018.5 | |
| 20260503015521 | 46 | 0.0 | 0.0 | 0.00 | 0.00 | 0.00 | 83 | 1018.6 | |
| 20260503014517 | 47 | 0.0 | 0.0 | 0.00 | 0.00 | 0.00 | 84 | 1018.6 | |
| 20260503013528 | 46 | 90 | 0.0 | 0.9 | 0.00 | 0.00 | 0.00 | 83 | 1018.7 |
| 20260503012524 | 46 | 0.0 | 0.0 | 0.00 | 0.00 | 0.00 | 82 | 1018.7 | |
| 20260503011520 | 46 | 0.0 | 0.0 | 0.00 | 0.00 | 0.00 | 82 | 1018.7 | |
| 20260503010515 | 47 | 0.0 | 0.0 | 0.00 | 0.00 | 0.00 | 82 | 1018.8 | |
| 20260503005526 | 47 | 0.0 | 0.0 | 0.00 | 0.00 | 0.00 | 83 | 1018.7 | |
| 20260503004522 | 47 | 0.0 | 0.0 | 0.00 | 0.00 | 0.00 | 83 | 1018.9 | |
| 20260503003518 | 47 | 0.0 | 0.0 | 0.00 | 0.00 | 0.00 | 82 | 1018.9 | |
| 20260503002529 | 47 | 0.0 | 0.0 | 0.00 | 0.00 | 0.00 | 83 | 1019.0 | |
| 20260503001525 | 48 | 0.0 | 0.0 | 0.00 | 0.00 | 0.00 | 83 | 1019.0 | |
| 20260503000521 | 47 | 0.0 | 0.0 | 0.00 | 0.00 | 0.00 | 83 | 1019.1 | |
| 20260502235516 | 47 | 0.0 | 0.0 | 0.00 | 0.00 | 0.00 | 83 | 1019.1 | |
| 20260502234527 | 47 | 0.0 | 0.0 | 0.00 | 0.00 | 0.00 | 82 | 1019.2 | |
| 20260502233523 | 47 | 0.0 | 0.0 | 0.00 | 0.00 | 0.00 | 82 | 1019.2 | |
| 20260502232525 | 47 | 0.0 | 0.0 | 0.00 | 0.00 | 0.00 | 82 | 1019.3 | |
| 20260502231521 | 48 | 0.0 | 0.0 | 0.00 | 0.00 | 0.00 | 81 | 1019.3 | |
| 20260502230517 | 48 | 0.0 | 0.0 | 0.00 | 0.00 | 0.00 | 80 | 1019.4 | |
| 20260502225528 | 49 | 0.0 | 0.0 | 0.00 | 0.00 | 0.00 | 80 | 1019.6 | |
| 20260502224524 | 49 | 0.0 | 0.0 | 0.00 | 0.00 | 0.00 | 80 | 1019.6 | |
| 20260502223520 | 49 | 0.0 | 0.0 | 0.00 | 0.00 | 0.00 | 78 | 1019.6 | |
| 20260502222516 | 49 | 0.0 | 0.0 | 0.00 | 0.00 | 0.00 | 77 | 1019.7 | |
| 20260502221526 | 50 | 0.0 | 0.0 | 0.00 | 0.00 | 0.00 | 76 | 1019.7 | |
| 20260502220521 | 50 | 0.0 | 0.0 | 0.00 | 0.00 | 0.00 | 76 | 1019.6 | |
| 20260502215517 | 50 | 0.0 | 0.0 | 0.00 | 0.00 | 0.00 | 75 | 1019.6 | |
| 20260502214527 | 51 | 0.0 | 0.0 | 0.00 | 0.00 | 0.00 | 74 | 1019.5 | |
| 20260502213523 | 51 | 0.0 | 0.0 | 0.00 | 0.00 | 0.00 | 74 | 1019.5 | |
| 20260502212519 | 51 | 0.0 | 0.0 | 0.00 | 0.00 | 0.00 | 75 | 1019.5 | |
| 20260502211530 | 52 | 0.0 | 0.0 | 0.00 | 0.00 | 0.00 | 73 | 1019.5 | |
| 20260502210526 | 52 | 0.0 | 0.0 | 0.00 | 0.00 | 0.00 | 72 | 1019.5 | |
| 20260502205521 | 53 | 0.0 | 0.0 | 0.00 | 0.00 | 0.00 | 72 | 1019.6 | |
| 20260502204517 | 53 | 0.0 | 0.0 | 0.00 | 0.00 | 0.00 | 71 | 1019.7 | |
| 20260502203528 | 53 | 0.0 | 0.0 | 0.00 | 0.00 | 0.00 | 71 | 1019.8 | |
| 20260502202524 | 54 | 0.0 | 0.0 | 0.00 | 0.00 | 0.00 | 70 | 1019.7 | |
| 20260502201519 | 54 | 0.0 | 0.0 | 0.00 | 0.00 | 0.00 | 65 | 1019.8 | |
| 20260502200515 | 55 | 0.0 | 0.0 | 0.00 | 0.00 | 0.00 | 63 | 1019.8 | |
| 20260502195526 | 55 | 0.0 | 0.0 | 0.00 | 0.00 | 0.00 | 63 | 1019.7 | |
| 20260502194522 | 56 | 0.0 | 0.0 | 0.00 | 0.00 | 0.00 | 62 | 1019.7 | |
| 20260502193518 | 57 | 0.0 | 0.0 | 0.00 | 0.00 | 0.00 | 61 | 1019.7 | |
| 20260502192529 | 57 | 0.0 | 0.0 | 0.00 | 0.00 | 0.00 | 60 | 1019.6 | |
| 20260502191525 | 58 | 0.0 | 0.0 | 0.00 | 0.00 | 0.00 | 58 | 1019.5 | |
| 20260502190521 | 59 | 0.0 | 0.0 | 0.00 | 0.00 | 0.00 | 57 | 1019.4 | |
| 20260502185517 | 60 | 0.0 | 0.0 | 0.00 | 0.00 | 0.00 | 56 | 1019.4 | |
| 20260502184528 | 61 | 0.0 | 0.0 | 0.00 | 0.00 | 0.00 | 53 | 1019.3 | |
| 20260502183523 | 62 | 0.0 | 0.0 | 0.00 | 0.00 | 0.00 | 50 | 1019.3 | |
| 20260502182519 | 64 | 0.0 | 0.0 | 0.00 | 0.00 | 0.00 | 44 | 1019.2 | |
| 20260502181515 | 65 | 0.0 | 0.0 | 0.00 | 0.00 | 0.00 | 41 | 1019.0 | |
| 20260502180526 | 67 | 0.0 | 0.0 | 0.00 | 0.00 | 0.00 | 41 | 1019.0 | |
| 20260502170516 | 78 | 216 | 0.0 | 1.7 | 0.00 | 0.00 | 0.00 | 25 | 1019.0 |
| 20260502162520 | 79 | 191 | 0.0 | 2.6 | 0.00 | 0.00 | 0.00 | 24 | 1019.4 |
| 20260502161516 | 79 | 217 | 1.7 | 4.3 | 0.00 | 0.00 | 0.00 | 25 | 1019.4 |
| 20260502160527 | 79 | 189 | 2.6 | 5.2 | 0.00 | 0.00 | 0.00 | 23 | 1019.5 |
| 20260502151521 | 81 | 195 | 1.7 | 4.3 | 0.00 | 0.00 | 0.00 | 22 | 1020.0 |
| 20260502150517 | 80 | 130 | 0.9 | 3.5 | 0.00 | 0.00 | 0.00 | 23 | 1020.2 |
| 20260502123519 | 78 | 320 | 1.7 | 5.2 | 0.00 | 0.00 | 0.00 | 24 | 1021.6 |
| 20260502122515 | 77 | 246 | 0.0 | 2.6 | 0.00 | 0.00 | 0.00 | 25 | 1021.7 |
| 20260502121526 | 77 | 179 | 2.6 | 5.2 | 0.00 | 0.00 | 0.00 | 25 | 1021.8 |
| 20260502120522 | 77 | 284 | 0.9 | 2.6 | 0.00 | 0.00 | 0.00 | 25 | 1022.0 |
| 20260502115518 | 77 | 21 | 0.9 | 3.5 | 0.00 | 0.00 | 0.00 | 25 | 1022.1 |
| 20260502114528 | 76 | 229 | 0.9 | 3.5 | 0.00 | 0.00 | 0.00 | 27 | 1022.2 |
| 20260502113524 | 75 | 150 | 1.7 | 4.3 | 0.00 | 0.00 | 0.00 | 27 | 1022.3 |
| 20260502112520 | 74 | 8 | 0.9 | 2.6 | 0.00 | 0.00 | 0.00 | 30 | 1022.4 |
| 20260502111530 | 73 | 16 | 1.7 | 6.1 | 0.00 | 0.00 | 0.00 | 27 | 1022.5 |
| 20260502110516 | 73 | 339 | 0.9 | 2.6 | 0.00 | 0.00 | 0.00 | 27 | 1022.6 |
| 20260502105527 | 74 | 340 | 2.6 | 4.3 | 0.00 | 0.00 | 0.00 | 26 | 1022.8 |
| 20260502104523 | 75 | 315 | 0.0 | 2.6 | 0.00 | 0.00 | 0.00 | 25 | 1022.9 |
| 20260502103519 | 74 | 158 | 0.9 | 2.6 | 0.00 | 0.00 | 0.00 | 25 | 1022.9 |
| 20260502102529 | 74 | 154 | 3.5 | 5.2 | 0.00 | 0.00 | 0.00 | 26 | 1023.1 |
| 20260502101525 | 74 | 177 | 1.7 | 4.3 | 0.00 | 0.00 | 0.00 | 25 | 1023.2 |
| 20260502100521 | 73 | 164 | 2.6 | 6.1 | 0.00 | 0.00 | 0.00 | 26 | 1023.3 |
| 20260502091530 | 73 | 270 | 0.0 | 0.9 | 0.00 | 0.00 | 0.00 | 29 | 1023.9 |
| 20260502090526 | 72 | 180 | 0.0 | 0.9 | 0.00 | 0.00 | 0.00 | 30 | 1023.9 |
| 20260502071530 | 63 | 90 | 0.9 | 2.6 | 0.00 | 0.00 | 0.00 | 44 | 1024.5 |
| 20260502070525 | 63 | 45 | 1.7 | 2.6 | 0.00 | 0.00 | 0.00 | 49 | 1024.4 |
| 20260502065521 | 62 | 0.0 | 0.0 | 0.00 | 0.00 | 0.00 | 52 | 1024.5 | |
| 20260502064517 | 61 | 90 | 0.0 | 0.9 | 0.00 | 0.00 | 0.00 | 52 | 1024.4 |
| 20260502063528 | 60 | 0.0 | 0.0 | 0.00 | 0.00 | 0.00 | 54 | 1024.5 | |
| 20260502062523 | 58 | 0.0 | 0.0 | 0.00 | 0.00 | 0.00 | 58 | 1024.6 | |
| 20260502061518 | 56 | 0.0 | 0.9 | 0.00 | 0.00 | 0.00 | 60 | 1024.7 | |
| 20260502060528 | 55 | 103 | 0.0 | 1.7 | 0.00 | 0.00 | 0.00 | 60 | 1024.7 |
| 20260502055524 | 54 | 25 | 0.0 | 1.7 | 0.00 | 0.00 | 0.00 | 61 | 1024.8 |
| 20260502054520 | 53 | 0.0 | 0.0 | 0.00 | 0.00 | 0.00 | 67 | 1024.8 | |
| 20260502053516 | 52 | 90 | 0.0 | 0.9 | 0.00 | 0.00 | 0.00 | 68 | 1024.8 |
| 20260502052527 | 52 | 0.0 | 0.0 | 0.00 | 0.00 | 0.00 | 69 | 1024.8 | |
| 20260502051523 | 51 | 0.0 | 0.0 | 0.00 | 0.00 | 0.00 | 72 | 1024.8 | |
| 20260502050525 | 50 | 0.0 | 0.0 | 0.00 | 0.00 | 0.00 | 75 | 1024.8 | |
| 20260502045521 | 48 | 0.0 | 0.0 | 0.00 | 0.00 | 0.00 | 82 | 1024.8 | |
| 20260502044517 | 45 | 0.0 | 0.0 | 0.00 | 0.00 | 0.00 | 87 | 1024.7 | |
| 20260502043527 | 43 | 0.0 | 0.0 | 0.00 | 0.00 | 0.00 | 88 | 1024.6 | |
| 20260502042528 | 42 | 0.0 | 0.0 | 0.00 | 0.00 | 0.00 | 88 | 1024.6 | |
| 20260502041524 | 42 | 0.0 | 0.0 | 0.00 | 0.00 | 0.00 | 88 | 1024.4 | |
| 20260502040520 | 42 | 0.0 | 0.0 | 0.00 | 0.00 | 0.00 | 88 | 1024.4 | |
| 20260502035516 | 42 | 0.0 | 0.0 | 0.00 | 0.00 | 0.00 | 88 | 1024.4 | |
| 20260502034526 | 42 | 0.0 | 0.0 | 0.00 | 0.00 | 0.00 | 87 | 1024.3 | |
| 20260502033522 | 42 | 0.0 | 0.0 | 0.00 | 0.00 | 0.00 | 86 | 1024.4 | |
| 20260502032518 | 42 | 0.0 | 0.0 | 0.00 | 0.00 | 0.00 | 86 | 1024.3 | |
| 20260502031529 | 43 | 0.0 | 0.0 | 0.00 | 0.00 | 0.00 | 86 | 1024.3 | |
| 20260502030525 | 43 | 0.0 | 0.0 | 0.00 | 0.00 | 0.00 | 86 | 1024.5 | |
| 20260502025521 | 43 | 0.0 | 0.0 | 0.00 | 0.00 | 0.00 | 85 | 1024.4 | |
| 20260502024516 | 43 | 0.0 | 0.0 | 0.00 | 0.00 | 0.00 | 84 | 1024.4 | |
| 20260502023527 | 43 | 0.0 | 0.0 | 0.00 | 0.00 | 0.00 | 83 | 1024.5 | |
| 20260502022523 | 44 | 0.0 | 0.0 | 0.00 | 0.00 | 0.00 | 83 | 1024.5 |